Location: Caserta
(41.0670°N, 14.3330°E)
Time: 01:48:46
(UTC+01:00)

STARLINK-1329 - Pass Details

Date: 10 October 2020
Orbit: 548 x 551 km, 53.0° (Epoch: 27 October)

Event Time Altitude Azimuth Distance (km) Brightness Sun altitude
Exits shadow 06:18:16 - 317° (NW) 2,233 6.3 -10.4°
Reaches altitude 10° 06:19:24 10° 323° (NW) 1,827 5.9 -10.2°
Maximum altitude 06:23:04 29° 25° (NNE) 1,025 5.3 -9.5°
Drops below altitude 10° 06:26:42 10° 86° (E) 1,824 8.0 -8.8°
Sets 06:29:10 0° 98° (E) 2,716 9.5 -8.3°
